Regional Weather Roundup
Issued by NWS Kansas City/Pleasant Hill, MO

Home | Current Version | Previous Version | Text Only | Print | Product List | Glossary On
Versions: 1 2 3 4 5 6 7 8 9 10 11 12 13 14 15 16 17 18 19 20 21 22 23 24 25 26 27 28 29 30 31 32 33 34 35 36 37 38 39 40 41 42 43 44 45 46 47 48 49 50
000
ASUS43 KEAX 300310
RWREAX

WEATHER ROUNDUP FOR EASTERN KANSAS AND NORTHWEST MISSOURI
NATIONAL WEATHER SERVICE KANSAS CITY/PLEASANT HILL MO
1000 PM CDT SUN MAY 29 2016

KSZ040-057-103>105-MOZ028-029-037-043-300400-
...KANSAS CITY METROPOLITAN AREA...

CITY           SKY/WX    TMP DP  RH WIND       PRES   REMARKS
K.C. INTL      CLOUDY    68  61  78 S8        30.05R
K.C. DOWNTOWN  CLOUDY    77  59  53 SW3       30.04R
LEES SUMMIT    CLOUDY    75  60  59 S7        30.06R
OLATHE - IXD   CLOUDY    71  60  68 CALM      30.07R
OLATHE - OJC   CLOUDY    72  60  66 SE5       30.06R
LAWRENCE       CLOUDY    68  64  87 CALM      30.05R

$$

MOZ001>008-011>017-020>025-030>033-038>040-044>046-053-054-300400-
...NORTHERN AND CENTRAL MISSOURI...

CITY           SKY/WX    TMP DP  RH WIND       PRES   REMARKS
ST. JOSEPH     CLOUDY    73  64  73 SW5       30.04R
MOSBY          CLOUDY    70  64  83 CALM      30.05R
WARRENSBURG    CLOUDY    73  63  68 S3        30.06R
WHITEMAN AFB   NOT AVBL
CLINTON        CLOUDY    72  66  83 CALM      30.06R
SEDALIA        PTCLDY    73  63  70 S6        30.08R
WARSAW         NOT AVBL
CHILLICOTHE      N/A     70  66  87 CALM      30.05R
KIRKSVILLE     CLOUDY    70  63  78 S3        30.05R

$$

MOZ041-047>049-056>058-063>065-088>090-097-300400-
...EASTERN AND SOUTHERN MISSOURI...

CITY           SKY/WX    TMP DP  RH WIND       PRES   REMARKS
ST. LOUIS INTL CLOUDY    77  59  53 CALM      30.07R
SPIRIT OF STL  PTCLDY    70  66  87 CALM      30.05R
COLUMBIA       CLOUDY    73  63  70 S6        30.06S
JEFFERSON CITY PTCLDY    72  64  76 E3        30.05R
ROLLA          CLEAR     69  61  75 S7        30.08R
SPRINGFIELD    CLEAR     72  62  71 SE5       30.08R
JOPLIN         CLOUDY    70  65  84 SE3       30.06R
WEST PLAINS    CLEAR     68  64  87 CALM      30.11S

$$

IAZ060-094-KSZ022-034>040-054-083-096-NEZ052-066-093-300400-
...KANSAS...SOUTHEAST NEBRASKA AND IOWA...

CITY           SKY/WX    TMP DP  RH WIND       PRES   REMARKS
TOPEKA         CLOUDY    72  66  81 CALM      30.04R
MANHATTAN      CLOUDY    67  64  90 CALM      30.05R
EMPORIA        CLOUDY    67  64  90 E6        30.06R
CHANUTE        PTCLDY    71  67  87 CALM      30.05R
WICHITA        CLOUDY    71  56  58 SW3       30.06R
OMAHA          CLOUDY    75  59  57 CALM      29.99R
LINCOLN        CLOUDY    74  61  63 S6        30.00S
FALLS CITY     CLOUDY    71  64  78 SE5       30.02R
LAMONI         CLOUDY    75  62  64 S5        30.03R
DES MOINES     PTCLDY    76  56  49 S5        30.01R

$$




USA.gov is the U.S. government's official web portal to all federal, state and local government web resources and services.